OPS 4682 DEB, 38434

Orbit data source: Space-Track

OPS 4682 DEB, 38434 is space debris in LEO originally from a launch on Sat, 03 Apr 1965 UTC launched from the Air Force Western Test Range (AFWTR). Debris objects in space refer to the collection of defunct objects orbiting the Earth. Examples of debris include non-operational satellites, rocket bodies, and fragments generated from explosions, collisions, or faulty payload assembly.

Loading next visibility...
Identifier
38434, 1965-027EP
Orbit
LEO
Country
Flag of USUS
Related business
Manufacturer
Unknown
Mission
Spacecraft
Bus & Motor
Unknown
Mass
Unknown
Launch date (UTC)
1965-04-03 (61 years ago)
Launch vehicle
Unknown
Launch site
Air Force Western Test Range (AFWTR)
Object type
Payload
Rocket body
Debris
Shape & HBR
Unknown shape, 0.1 m
Radar Cross Section
Small (<0.1 m²)

Expand to show TLE details & history
Last TLE update: 1 day ago

TLE from 1 day ago
0 OPS 4682 DEB
1 38434U 65027EP  26103.95318058  .00000767  00000-0  26143-2 0  9991
2 38434  90.2457   4.5190 0034748  12.0515 348.1429 12.97344260654183
Epoch: 2026-04-13T22:52Z
TLE epoch observation values (Epoch: 2026-04-13T22:52:34.802Z)
Latitude
-0.00002°
Longitude
179.2376°
Altitude
1,249.371 km
Speed
7.243 km/s
True Right ascension
00h 18m 04s
True Declination
0° 00' 00"
Sunlit
Object was in daylight at epoch
Visualization orbit readout
Latitude
Unknown
Longitude
Unknown
Altitude
Unknown
Speed
Unknown
Apparent Right ascension
Unknown
Apparent Declination
Unknown
Sunlit
N/A
Visualization observer readout
Local Sidereal Time
05:55:30
Azimuth
Unknown
Elevation
Unknown
Doppler factor
Unknown
Orbital elements
Apogee altitude
1,296.215 km
Perigee altitude
1,243.066 km
Semi-major axis
7,647.778 km
Eccentricity
0.00347
Inclination
90.2457°
RAAN
4.519°
Arg. of periapsis
12.0515°
True anomaly
348.06074°
Mean anomaly
348.1429°
Eccentric anomaly
348.10185°
Mean motion
3.24519 °/min
Orbital period
110.93 mins
BSTAR
0.0026143
Loading maneuver chart data...
Computing Atmospheric mass density...
Loading historical data...
Loading historical data...
Loading historical data...
Loading historical data...
Loading historical data...
Loading historical data...
Loading historical data...

Documentation

Showing up to 5 results
|